Change the Weather History Date:

Wednesday, April 16, 2014

  Actual Average Record
Temperature  
Mean Temperature 44 °F -  
Max Temperature 57 °F 71 °F 89 °F (2006)
Min Temperature 34 °F 52 °F 32 °F (1962)
Degree Days  
Heating Degree Days 20    
Moisture  
Dew Point 27 °F    
Average Humidity 51    
Maximum Humidity 73    
Minimum Humidity 30    
Precipitation  
Precipitation 0.00 in - - ()
Sea Level Pressure  
Sea Level Pressure 30.19 in    
Wind  
Wind Speed 10 mph (SSE)    
Max Wind Speed 22 mph    
Max Gust Speed 29 mph    
Visibility 10 miles    
Events      
Averages and records for this station are not official NWS values.
T = Trace of Precipitation, MM = Missing Value Source: NWS Daily Summary

Daily Weather History Graph

Daily Weather History Graph

Search for Another Location

Airport or City:

Trip Planner

Search our weather history database for the weather conditions in past years. The results will help you decide how hot, cold, wet, or windy it might be!

Date:

Astronomy

Apr. 16, 2014 Rise Set
Actual Time 6:23 AM CDT 7:38 PM CDT
Civil Twilight 5:55 AM CDT 8:05 PM CDT
Nautical Twilight 5:22 AM CDT 8:38 PM CDT
Astronomical Twilight 4:48 AM CDT 9:13 PM CDT
Moon 9:21 PM CDT (4/16) 7:11 AM CDT (4/16)
Length of Visible Light 14h 10m
Length of Day
13h 15m
Full, 98% of the Moon is Illuminated
Apr 16
Full
Apr 22
Last Quarter
Apr 29
New
May 6
First Quarter
May 14
Full

Hourly Weather History & Observations

Time (CDT) Temp. Windchill Dew Point Humidity Pressure Visibility Wind Dir Wind Speed Gust Speed Precip Events Conditions
12:53 AM 36.0 °F 30.3 °F 26.1 °F 67% 30.24 in 10.0 mi SSE 6.9 mph - N/A   Clear
1:53 AM 37.0 °F 31.0 °F 25.0 °F 62% 30.24 in 10.0 mi SSE 8.1 mph - N/A   Clear
2:53 AM 37.0 °F 32.4 °F 25.0 °F 62% 30.24 in 10.0 mi SSE 5.8 mph - N/A   Clear
3:53 AM 36.0 °F 31.1 °F 25.0 °F 64% 30.24 in 10.0 mi SSE 5.8 mph - N/A   Clear
4:53 AM 34.0 °F 28.0 °F 26.1 °F 73% 30.24 in 10.0 mi SE 6.9 mph - N/A   Clear
5:53 AM 34.0 °F 28.0 °F 26.1 °F 73% 30.25 in 10.0 mi SSE 6.9 mph - N/A   Clear
6:53 AM 36.0 °F 29.6 °F 26.1 °F 67% 30.25 in 10.0 mi SSE 8.1 mph - N/A   Clear
7:53 AM 39.0 °F 31.8 °F 27.0 °F 62% 30.27 in 10.0 mi SSE 11.5 mph - N/A   Clear
8:53 AM 41.0 °F 32.8 °F 27.0 °F 57% 30.27 in 10.0 mi SSE 16.1 mph 24.2 mph N/A   Clear
9:53 AM 44.1 °F 36.8 °F 27.0 °F 51% 30.28 in 10.0 mi South 16.1 mph 23.0 mph N/A   Clear
10:53 AM 48.0 °F - 28.0 °F 46% 30.28 in 10.0 mi South 16.1 mph 23.0 mph N/A   Clear
11:53 AM 50.0 °F - 28.9 °F 44% 30.25 in 10.0 mi SSE 21.9 mph 27.6 mph N/A   Clear
1:53 PM 53.1 °F - 28.9 °F 40% 30.19 in 10.0 mi SSE 17.3 mph 28.8 mph N/A   Clear
2:53 PM 55.0 °F - 30.0 °F 38% 30.15 in 10.0 mi SSE 17.3 mph 26.5 mph N/A   Clear
3:53 PM 55.9 °F - 28.9 °F 36% 30.11 in 10.0 mi SSE 18.4 mph 26.5 mph N/A   Clear
4:53 PM 55.9 °F - 28.0 °F 34% 30.09 in 10.0 mi SSE 17.3 mph 26.5 mph N/A   Clear
5:53 PM 55.0 °F - 24.1 °F 30% 30.08 in 10.0 mi SSE 15.0 mph 24.2 mph N/A   Clear
6:53 PM 54.0 °F - 23.0 °F 30% 30.08 in 10.0 mi South 13.8 mph 23.0 mph N/A   Clear
7:53 PM 51.1 °F - 26.1 °F 38% 30.09 in 10.0 mi SSE 9.2 mph - N/A   Clear
8:53 PM 50.0 °F - 28.9 °F 44% 30.10 in 10.0 mi SSE 12.7 mph - N/A   Clear
9:53 PM 48.9 °F - 28.9 °F 46% 30.14 in 10.0 mi SSW 4.6 mph - N/A   Clear
10:53 PM 45.0 °F 42.6 °F 30.0 °F 56% 30.16 in 10.0 mi SSE 4.6 mph - N/A   Clear
11:53 PM 45.0 °F 42.6 °F 30.9 °F 58% 30.16 in 10.0 mi South 4.6 mph - N/A   Clear